AirNav   Everest Fuels
 
 524 users online  

H70 Stratford Field Airport
Stratford, Texas, USA

GOING TO STRATFORD?


FAA INFORMATION EFFECTIVE 26 JANUARY 2023

Location

FAA Identifier: H70
Lat/Long: 36-20-44.3000N 102-02-57.3000W
36-20.738333N 102-02.955000W
36.3456389,-102.0492500
(estimated)
Elevation: 3668.2 ft. / 1118.1 m (surveyed)
Variation: 09E (1985)
From city: 1 mile NE of STRATFORD, TX
Time zone: UTC -6 (UTC -5 during Daylight Saving Time)
Zip code: 79084

Airport Operations

Airport use: Open to the public
Activation date: 12/1946
Control tower: no
ARTCC: ALBUQUERQUE CENTER
FSS: FORT WORTH FLIGHT SERVICE STATION
NOTAMs facility: FTW (NOTAM-D service available)
Attendance: UNATNDD
Wind indicator: lighted
Segmented circle: no
Lights: ACTVT LIRL RWY 04/22 5X - CTAF.

Airport Communications

CTAF: 122.9
  • COMMUNICATIONS PRVDD BY FORT WORTH RADIO ON FREQS 122.2 & 255.4 (DALHART RCO).

Nearby radio navigation aids

VOR radial/distance  VOR name  Freq  Var
DHTr046/28.4DALHART VORTAC112.0012E

 
NDB name  Hdg/Dist  Freq  Var  ID
GUYMON222/34.027509EGUY --. ..- -.--

Airport Services

Fuel available: EMERGENCY FUEL 100LL ONLY.
Parking: hangars and tiedowns
Airframe service: NONE
Powerplant service: NONE
Bottled oxygen: NONE
Bulk oxygen: NONE

Runway Information

Runway 4/22

Dimensions: 3023 x 32 ft. / 921 x 10 m
Surface: asphalt, in fair condition
RWY 04 END, BROKEN ASPH & LOOSE STONES.
Weight bearing capacity: 
Single wheel: 9.0
Runway edge lights: non-standard
LIRL LCTD 33 FT FM EDGE OF PAVEMENT. NONSTD SOLAR THR LGTS.
Runway edge markings: RWY NOT MKD.
RUNWAY 4  RUNWAY 22
Latitude: 36-20.592200N36-20.885550N
Longitude: 102-03.204267W102-02.706533W
Elevation: 3668.2 ft.3652.3 ft.
Traffic pattern: leftleft
Runway heading: 045 magnetic, 054 true225 magnetic, 234 true
Touchdown point: yes, no lightsyes, no lights
Obstructions: 15 ft. road, 200 ft. from runway, 50 ft. right of centerline
+20 FT HNGR AT THR 80 FT RIGHT CNTRLN.
15 ft. road, 200 ft. from runway, 35 ft. right of centerline
15 FT ROAD 166 FT FM THR, O BOTH SIDES.

Airport Ownership and Management from official FAA records

Ownership: Privately-owned
Owner: SKYRANCHERS INC.
PO BOX 223
STRATFORD, TX 79084
Phone (806) 753-7866
Manager: ROGER WELLS
BOX 223
STRATFORD, TX 79084
Phone (806) 753-7866

Airport Operational Statistics

Aircraft based on the field: 6
Single engine airplanes: 6
    
Aircraft operations: avg 22/month *
62% local general aviation
38% transient general aviation
* for 12-month period ending 20 September 2017

Additional Remarks

SEWAGE TREATMENT PLANT LCTD SOUTH OF RWY.
FOR CD CTC ALBUQUERQUE ARTCC AT 505-856-4861.

Instrument Procedures

NOTE: All procedures below are presented as PDF files. If you need a reader for these files, you should download the free Adobe Reader.

NOT FOR NAVIGATION. Please procure official charts for flight.
FAA instrument procedures published for use from 26 January 2023 at 0901Z to 23 February 2023 at 0900z.

NOTE: Special Take-Off Minimums/Departure Procedures apply   download (195KB)

Other nearby airports with instrument procedures:

KDUX - Moore County Airport (29 nm S)
E19 - Gruver Municipal Airport (31 nm E)
KDHT - Dalhart Municipal Airport (31 nm SW)
KGUY - Guymon Municipal Airport (33 nm NE)
17K - Boise City Airport (34 nm NW)
 
Loc | Ops | Rwys | IFR | FBO | Links
Com | Nav | Svcs | Stats | Notes

AirBoss

 
Area around H70 (Stratford Field Airport)
 
Road maps at: MapQuest Bing Google
 
Aerial photo
WARNING: Photo may not be current or correct
Aerial photo of H70 (Stratford Field Airport)
Photo by R. Johnson

Do you have a better or more recent aerial photo of Stratford Field Airport that you would like to share? If so, please send us your photo.

 
Sectional chart

 
Airport distance calculator
Flying to Stratford Field Airport? Find the distance to fly.

From to H70

Sunrise and sunset
Times for 07-Feb-2023
 Local
(UTC-6)
 Zulu
(UTC)
Morning civil twilight07:1813:18
Sunrise07:4513:45
Sunset18:2000:20
Evening civil twilight18:4600:46

Current date and time
Zulu (UTC)  07-Feb-2023 07:44:15
Local (UTC-6)  07-Feb-2023 01:44:15
 
METAR
KDUX 
29nm S 
070735Z AUTO 34015KT 10SM CLR M01/M05 A3009 RMK AO2 T10061047
KDHT 
31nm SW 
070653Z AUTO 01014KT 10SM CLR 02/M03 A3009 RMK AO2 SLP173 T00171033
KGUY 
33nm NE 
070653Z AUTO 36010KT CLR 00/M03 A3007 RMK AO2 SLP171 T00001033
KEHA 
40nm N 
070735Z AUTO 35013KT 10SM CLR 01/M03 A3014 RMK AO2 T00061032
KBGD 
50nm SE 
070651Z AUTO 34012KT 10SM CLR 04/M03 A3009 RMK AO2 SLP173 T00391028
TAF
KDHT 
31nm SW 
070520Z 0706/0806 02017G27KT P6SM SCT300 FM071300 36017G27KT P6SM SCT120 BKN300 FM072300 03010KT P6SM SCT120 BKN300
KGUY 
33nm NE 
070520Z 0706/0806 01020G30KT P6SM SCT300 FM070700 36015KT P6SM SCT120 BKN300 FM080200 03004KT P6SM OVC250 AMD LTD TO CLD WIND AND WX
NOTAMs
Click for the latest NOTAMs
NOTAMs are issued by the DoD/FAA and will open in a separate window not controlled by AirNav.

 

 
 

Would you like to see your business listed on this page?

 If your business provides an interesting product or service to pilots, flight crews, aircraft, or users of the Stratford Field Airport, you should consider listing it here.  To start the listing process, click on the button below
 
Add a business
 

Other Pages about Stratford Field Airport

Update a link
 
Copyright © AirNav, LLC. All rights reserved. Privacy Policy  Contact